Regional Weather Roundup
Issued by NWS

Home | Current Version | Previous Version | Text Only | Print | Product List | Glossary On
Versions: 1 2 3 4 5 6 7 8 9 10 11 12 13 14 15 16 17 18 19 20 21 22 23 24 25 26 27 28 29 30 31 32 33 34 35 36 37 38 39 40 41 42 43 44 45 46 47 48 49 50
000
ASPQ40 PGUM 300112
RWRPQ
WEATHER ROUNDUP FOR THE MARIANAS AND MICRONESIA
NATIONAL WEATHER SERVICE TIYAN GU
1100 AM CHST WED JUL 30 2014

GUZ001>004-300200-
MARIANA ISLANDS-

CITY           SKY/WX    TMP DP  RH WIND       PRES   REMARKS
GUAM AIRPORT   HVY RAIN  75  75 100 W30G47    29.69S VSB 3/4
ANDERSEN AFB   HVY RAIN  75  75 100 W18       29.64F VSB 1/4
ROTA AIRPORT   LGT RAIN  79  79 100 SE32G41   29.45R FOG
TINIAN AP      PTSUNNY   81  81 100 E15       29.77R HX  91
SAIPAN AP      CLOUDY    84  77  79 E20       29.79R HX  94

$$

PMZ161-300200-
REPUBLIC OF PALAU-

CITY           SKY/WX    TMP DP  RH WIND       PRES   REMARKS
KOROR AP       MOSUNNY   86  79  79 SW7       29.90R HX  99
KOROR WSO      PTSUNNY   86  75  70 SW14      29.89R HX  95

$$

PMZ171>174-300200-
FEDERATED STATES OF MICRONESIA-

CITY           SKY/WX    TMP DP  RH WIND       PRES   REMARKS
YAP AIRPORT    PTSUNNY   86  77  74 SW8       29.87S HX  97
CHUUK AP       CLOUDY    86  79  79 N8        29.88F HX  99
POHNPEI AP     CLOUDY    88  79  74 MISG      29.86S HX 102
POHNPEI WSO    PTSUNNY   91  81  70 W6        29.89  HX 110
KOSRAE AP      NOT AVBL

$$

PMZ181-300200-
REPUBLIC OF THE MARSHALL ISLANDS-

CITY           SKY/WX    TMP DP  RH WIND       PRES   REMARKS
KWAJALEIN AP   MOSUNNY   86  73  66 CALM      29.85F HX  93
MAJURO AP      NOT AVBL
MAJURO WSO     MOSUNNY   86  77  74 NW6       29.83F HX  97

$$




USA.gov is the U.S. government's official web portal to all federal, state and local government web resources and services.